Regional Weather Roundup
Issued by NWS Portland, ME

Home | Current Version | Previous Version | Text Only | Print | Product List | Glossary On
Versions: 1 2 3 4 5 6 7 8 9 10 11 12 13 14 15 16 17 18 19 20 21 22 23 24 25 26 27 28 29 30 31 32 33 34 35 36 37 38 39 40 41 42 43 44 45 46 47 48 49 50
000
ASUS41 KGYX 250410
RWRGYX
WEATHER ROUNDUP FOR MAINE AND NEW HAMPSHIRE
NATIONAL WEATHER SERVICE GRAY ME
1100 PM EST FRI NOV 24 2017

MEZ002-005-006-010-012-015-018-020-021-024-026-027-029-250500-
MAINE

CITY           SKY/WX    TMP DP  RH WIND       PRES   REMARKS
PORTLAND       CLEAR     40  28  62 SW7       29.87F
SANFORD          N/A     33  27  78 SW5       29.88F
BAR HARBOR     CLEAR     43  38  82 S9        29.89F
WISCASSET      CLEAR     31  29  92 SW3       29.89F
ROCKLAND       CLEAR     45  36  70 SW7       29.88F
FRYEBURG       CLEAR     32  28  85 CALM      29.84F
LEWISTONAUBURN CLEAR     35  30  82 S6        29.85F
AUGUSTA        CLEAR     37  32  82 SW6       29.85F
WATERVILLE     CLEAR     34  31  88 VRB5      29.80F
BANGOR         PTCLDY    37  33  85 S8        29.86F
GREENVILLE       N/A     31  27  85 SE8       29.75
MILLINOCKET    CLOUDY    36  30  79 VRB3      29.83F
HOULTON        CLOUDY    38  31  76 S8        29.80F
PRESQUE ISLE   LGT RAIN  34  30  85 SE9       29.78F
FRENCHVILLE    CLOUDY    31  27  85 S16       29.70F WCI  20
CARIBOU        LGT RAIN  35  29  78 S14       29.75F
$$

NHZ002-005-008-009-011-012-014-250500-
NEW HAMPSHIRE

CITY           SKY/WX    TMP DP  RH WIND       PRES   REMARKS
PORTSMOUTH     CLEAR     36  26  68 SW8       29.87F
ROCHESTER      CLEAR     34  27  75 CALM      29.87F
NASHUA         CLEAR     32  28  85 CALM      29.89F
MANCHESTER     CLEAR     38  26  62 S7        29.86F
CONCORD        CLEAR     32  26  78 CALM      29.87F
LACONIA        CLEAR     26  25  96 CALM      29.85F
PLYMOUTH       FAIR      26  25  98 CALM      29.87F
BERLIN         CLEAR     24  23  96 CALM      29.78F
WHITEFIELD     CLEAR     25  23  92 CALM      29.79F
JAFFREY        CLEAR     37  28  70 SW5       29.86F
KEENE          CLEAR     25  22  88 CALM      29.88F
LEBANON        CLEAR     34  26  72 S7        29.82F
MT WASHINGTON  PTCLDY    34  25  69 SW35G40     N/A  WCI  19
$$

VTZ005-007-008-250500-
VERMONT

CITY           SKY/WX    TMP DP  RH WIND       PRES   REMARKS
ST JOHNSBURY     N/A     37  27  67 MISG      29.78
MONTPELIER     CLEAR     36  27  69 S7        29.79F
BURLINGTON     CLEAR     46  24  42 S21G31    29.71F
$$

MAZ007-012-024-CTZ003-RIZ002-NYZ038-NYZ072-250500-
SOUTHERN NEW ENGLAND AND NY

CITY           SKY/WX    TMP DP  RH WIND       PRES   REMARKS
BOSTON         CLEAR     40  33  76 S12       29.92F
WORCESTER      CLEAR     37  26  64 SW17      29.87F
NANTUCKET      CLEAR     48  44  86 SW10      29.97F
PROVIDENCE     CLEAR     38  35  89 W5        29.94F
HARTFORD       CLEAR     36  30  79 S8        29.92F
ALBANY         MOCLDY    42  22  44 S12       29.85F
NEW YORK CITY  CLEAR     46  31  55 S9        29.95S
$$

ANZ081-ANZ082-ANZ150-NHZ014-MEZ023>029-250500-
COASTAL MARINE OBSERVATIONS

STATION/POSITION TIME  TEMP    WIND        PRES    WAVE
                       AIR SEA DIR/SP/G            HT/PER
                 (UTC) (F)     (DEG/KT/KT) (MB)    (FT/S)
MOUNT DESERT ROC 0400   48     190/ 23/ 25 1012.4F
MATINICUS ROCK   0300   48     220/ 26/ 29 1012.4F
ISLE OF SHOALS   0300   44     220/ 21/ 23 1012.2F
JEFFREYS LEDGE   0336      49                N/A     5/ 5
GEORGES BANK BUO 0250   50 53              1016.9    4/10
$$

.............KEY..............
   WCI - WIND CHILL
   TC  - TEMPERATURE IN CELSIUS
   VSB - VISIBILITY IN MILES
   HX  - HEAT INDEX
   FAIR- INDICATES FEW OR NO CLOUDS BELOW 12,000 FT, WITH NO
         SIGNIFICANT WEATHER AND/OR OBSTRUCTIONS TO VISIBILITY.





USA.gov is the U.S. government's official web portal to all federal, state and local government web resources and services.